Weather History for Port Aransas, TX

Change the Weather History Date:

Tuesday, May 8, 2012

  Actual Average (KCRP) Record (KCRP)
Temperature  
Mean Temperature 78 °F 77 °F  
Max Temperature 82 °F 85 °F 98 °F (1967)
Min Temperature 73 °F 69 °F 53 °F (1992)
Degree Days  
Heating Degree Days 0 0  
Month to date heating degree days 0  
Since 1 July heating degree days 898  
Cooling Degree Days 12 12  
Month to date cooling degree days 91  
Year to date cooling degree days 519  
Growing Degree Days 28 (Base 50)    
Moisture  
Dew Point 76 °F    
Average Humidity 92    
Maximum Humidity 100    
Minimum Humidity 83    
Precipitation  
Precipitation 0.00 in 0.09 in 2.63 in (1968)
Month to date precipitation 0.70  
Year to date precipitation 7.90  
Snow  
Snow 0.00 in - - ()
Month to date snowfall  
Since 1 July snowfall  
Snow Depth -    
Sea Level Pressure  
Sea Level Pressure 29.90 in    
Wind  
Wind Speed 11 mph (NE)    
Max Wind Speed 25 mph    
Max Gust Speed 31 mph    
Visibility 9 miles    
Events Thunderstorm    
T = Trace of Precipitation, MM = Missing Value Source: NWS Daily Summary

Daily Weather History Graph

Daily Weather History Graph

Search for Another Location

Airport:

Trip Planner

Search our weather history database for the weather conditions in past years. The results will help you decide how hot, cold, wet, or windy it might be!

Date:

Astronomy

May. 08, 2012 Rise Set
Actual Time 6:43 AM CDT 8:06 PM CDT
Civil Twilight 6:17 AM CDT 8:32 PM CDT
Nautical Twilight 5:47 AM CDT 9:02 PM CDT
Astronomical Twilight 5:16 AM CDT 9:33 PM CDT
Moon 11:12 PM CDT (5/8) 9:00 AM CDT (5/8)
Length of Visible Light 14h 14m
Length of Day
13h 23m
Waning Gibbous, 90% of the Moon is Illuminated
May 8
Waning Gibbous
May 12
Last Quarter
May 20
New
May 28
First Quarter
Jun 4
Full

Hourly Weather History & Observations

Time (CDT) Temp. Heat Index Dew Point Humidity Pressure Visibility Wind Dir Wind Speed Gust Speed Precip Events Conditions
12:15 AM 80.6 °F 89.3 °F 80.6 °F 100% 29.92 in 8.0 mi SE 3.5 mph - N/A   Clear
12:35 AM 80.6 °F 89.3 °F 80.6 °F 100% 29.92 in 7.0 mi Calm Calm - N/A   Clear
12:55 AM 80.6 °F 89.3 °F 80.6 °F 100% 29.93 in 7.0 mi North 5.8 mph - N/A   Clear
1:15 AM 80.6 °F 89.3 °F 80.6 °F 100% 29.92 in 8.0 mi NNE 5.8 mph - N/A   Clear
1:35 AM 80.6 °F 88.1 °F 78.8 °F 94% 29.90 in 8.0 mi NE 5.8 mph - N/A   Clear
1:55 AM 78.8 °F - 78.8 °F 100% 29.88 in 7.0 mi East 6.9 mph - N/A   Clear
2:15 AM 80.6 °F 89.3 °F 80.6 °F 100% 29.88 in 7.0 mi ENE 8.1 mph - N/A   Clear
2:35 AM 80.6 °F 89.3 °F 80.6 °F 100% 29.86 in 7.0 mi East 11.5 mph - N/A   Clear
2:55 AM 80.6 °F 89.3 °F 80.6 °F 100% 29.84 in 9.0 mi East 11.5 mph - N/A   Clear
3:15 AM 80.6 °F 89.3 °F 80.6 °F 100% 29.85 in 7.0 mi East 10.4 mph - N/A   Clear
3:55 AM 80.6 °F 89.3 °F 80.6 °F 100% 29.85 in 8.0 mi ENE 13.8 mph - N/A   Clear
4:15 AM 80.6 °F 89.3 °F 80.6 °F 100% 29.86 in 7.0 mi ENE 12.7 mph 16.1 mph N/A   Clear
4:35 AM 80.6 °F 89.3 °F 80.6 °F 100% 29.86 in 8.0 mi ENE 13.8 mph 19.6 mph N/A   Clear
4:55 AM 78.8 °F - 78.8 °F 100% 29.86 in 7.0 mi ENE 13.8 mph - N/A   Clear
5:15 AM 78.8 °F - 78.8 °F 100% 29.86 in 7.0 mi East 13.8 mph 18.4 mph N/A   Clear
5:35 AM 78.8 °F - 78.8 °F 100% 29.86 in 7.0 mi East 11.5 mph 16.1 mph N/A   Clear
5:55 AM 78.8 °F - 78.8 °F 100% 29.86 in 7.0 mi East 11.5 mph - N/A   Clear
6:35 AM 78.8 °F - 78.8 °F 100% 29.86 in 8.0 mi ESE 11.5 mph - N/A   Clear
6:55 AM 78.8 °F - 78.8 °F 100% 29.87 in 7.0 mi ESE 9.2 mph - N/A   Clear
7:15 AM 80.6 °F 89.3 °F 80.6 °F 100% 29.88 in 8.0 mi ESE 8.1 mph - N/A   Clear
7:35 AM 80.6 °F 89.3 °F 80.6 °F 100% 29.90 in 2.5 mi East 6.9 mph - N/A   Clear
7:55 AM 80.6 °F 89.3 °F 80.6 °F 100% 29.91 in 7.0 mi ENE 9.2 mph - N/A   Clear
8:15 AM 82.4 °F 94.0 °F 80.6 °F 94% 29.91 in 9.0 mi ENE 9.2 mph - N/A   Clear
8:35 AM 82.4 °F 92.4 °F 78.8 °F 89% 29.90 in 9.0 mi East 9.2 mph - N/A   Clear
8:55 AM 82.4 °F 92.4 °F 78.8 °F 89% 29.91 in 10.0 mi ENE 9.2 mph - N/A   Clear
9:15 AM 82.4 °F 92.4 °F 78.8 °F 89% 29.91 in 9.0 mi East 9.2 mph - N/A   Clear
9:35 AM 80.6 °F 86.2 °F 75.2 °F 84% 29.90 in 10.0 mi NNE 12.7 mph 20.7 mph N/A   Partly Cloudy
9:55 AM 80.6 °F 87.1 °F 77.0 °F 89% 29.91 in 9.0 mi NNE 11.5 mph - N/A   Partly Cloudy
10:15 AM 78.8 °F - 77.0 °F 94% 29.91 in 9.0 mi North 13.8 mph 19.6 mph N/A   Clear
10:35 AM 78.8 °F - 77.0 °F 94% 29.92 in 7.0 mi NNE 13.8 mph - N/A   Partly Cloudy
10:55 AM 80.6 °F 87.1 °F 77.0 °F 89% 29.91 in 9.0 mi NE 15.0 mph - N/A   Clear
11:35 AM 80.6 °F 86.2 °F 75.2 °F 84% 29.92 in 10.0 mi NE 13.8 mph - N/A   Clear
11:55 AM 80.6 °F 86.2 °F 75.2 °F 84% 29.92 in 10.0 mi NNE 15.0 mph - N/A   Clear
12:15 PM 80.6 °F 86.2 °F 75.2 °F 84% 29.91 in 10.0 mi NE 17.3 mph - N/A   Clear
12:35 PM 80.6 °F 86.2 °F 75.2 °F 84% 29.93 in 10.0 mi NE 16.1 mph - N/A Thunderstorm Clear
12:55 PM 80.6 °F 86.2 °F 75.2 °F 84% 29.93 in 10.0 mi NNE 13.8 mph 18.4 mph N/A   Clear
1:15 PM 80.6 °F 86.2 °F 75.2 °F 84% 29.94 in 9.0 mi NNE 15.0 mph - N/A Thunderstorm Clear
1:35 PM 80.6 °F 87.1 °F 77.0 °F 89% 29.93 in 10.0 mi NNE 13.8 mph - N/A   Clear
1:55 PM 80.6 °F 87.1 °F 77.0 °F 89% 29.90 in 10.0 mi NNE 15.0 mph - N/A   Partly Cloudy
2:15 PM 80.6 °F 87.1 °F 77.0 °F 89% 29.89 in 10.0 mi NNE 21.9 mph 25.3 mph N/A   Clear
2:35 PM 78.8 °F - 75.2 °F 89% 29.91 in 9.0 mi North 18.4 mph - N/A   Partly Cloudy
2:55 PM 78.8 °F - 75.2 °F 89% 29.93 in 10.0 mi North 18.4 mph - N/A   Partly Cloudy
3:15 PM 78.8 °F - 75.2 °F 89% 29.93 in 10.0 mi North 18.4 mph 24.2 mph N/A   Partly Cloudy
3:35 PM 75.2 °F - 73.4 °F 94% 29.92 in 10.0 mi North 20.7 mph 29.9 mph N/A Thunderstorm Unknown
3:55 PM 75.2 °F - 73.4 °F 94% 29.92 in 10.0 mi North 25.3 mph 29.9 mph N/A   Scattered Clouds
4:15 PM 75.2 °F - 73.4 °F 94% 29.91 in 10.0 mi North 24.2 mph 31.1 mph N/A   Partly Cloudy
4:35 PM 75.2 °F - 71.6 °F 89% 29.90 in 10.0 mi North 19.6 mph 28.8 mph N/A   Partly Cloudy
4:55 PM 75.2 °F - 71.6 °F 89% 29.88 in 10.0 mi NNE 23.0 mph 28.8 mph N/A   Clear
5:15 PM 75.2 °F - 71.6 °F 89% 29.86 in 5.0 mi NNE 23.0 mph 27.6 mph N/A   Clear
5:55 PM 75.2 °F - 71.6 °F 89% 29.89 in 10.0 mi NNE 20.7 mph - N/A   Clear
6:15 PM 75.2 °F - 71.6 °F 89% 29.90 in 10.0 mi NNE 19.6 mph - N/A   Clear
6:35 PM 75.2 °F - 69.8 °F 83% 29.90 in 10.0 mi NE 17.3 mph - N/A   Clear
6:55 PM 75.2 °F - 69.8 °F 83% 29.89 in 10.0 mi NNE 18.4 mph - N/A   Clear
7:15 PM 75.2 °F - 69.8 °F 83% 29.89 in 10.0 mi NNE 18.4 mph - N/A   Clear
7:35 PM 75.2 °F - 71.6 °F 89% 29.89 in 10.0 mi NNE 13.8 mph - N/A   Clear
7:55 PM 75.2 °F - 71.6 °F 89% 29.88 in 10.0 mi NNE 17.3 mph - N/A   Clear
8:15 PM 75.2 °F - 69.8 °F 83% 29.89 in 10.0 mi NNE 16.1 mph 23.0 mph N/A   Clear
8:35 PM 75.2 °F - 69.8 °F 83% 29.90 in 10.0 mi NNE 15.0 mph 19.6 mph N/A   Clear
8:55 PM 75.2 °F - 71.6 °F 89% 29.91 in 10.0 mi NE 13.8 mph 19.6 mph N/A   Clear
9:15 PM 75.2 °F - 71.6 °F 89% 29.91 in 10.0 mi NE 15.0 mph - N/A   Clear
9:35 PM 77.0 °F - 71.6 °F 83% 29.91 in 10.0 mi NE 12.7 mph 19.6 mph N/A   Clear
9:55 PM 77.0 °F - 71.6 °F 83% 29.93 in 10.0 mi NE 10.4 mph - N/A   Clear
10:15 PM 77.0 °F - 73.4 °F 89% 29.94 in 10.0 mi NE 9.2 mph - N/A   Clear
10:55 PM 75.2 °F - 73.4 °F 94% 29.96 in 10.0 mi NNE 11.5 mph - N/A   Clear
11:15 PM 75.2 °F - 73.4 °F 94% 29.97 in 10.0 mi North 9.2 mph - N/A   Clear
11:35 PM 73.4 °F - 73.4 °F 100% 29.97 in 9.0 mi North 9.2 mph - N/A   Clear
11:55 PM 73.4 °F - 73.4 °F 100% 29.98 in 10.0 mi North 16.1 mph - N/A   Clear